Sparta, IL

12:07 AM CDT on July 22, 2017 (GMT -0500)
Sparta Community-Hunter

Weather History for KSAR - November, 2012

Change the Weather History Date:

Wednesday, November 7, 2012

  Actual Average (KBLV) Record (KBLV)
Temperature  
Mean Temperature 42 °F -  
Max Temperature 50 °F 57 °F 80 °F (1980)
Min Temperature 33 °F 37 °F 16 °F (1993)
Degree Days  
Heating Degree Days 22    
Moisture  
Dew Point 42 °F    
Average Humidity 93    
Maximum Humidity 100    
Minimum Humidity 76    
Precipitation  
Precipitation 0.00 in - - ()
Sea Level Pressure  
Sea Level Pressure 30.09 in    
Wind  
Wind Speed 4 mph (NNW)    
Max Wind Speed 14 mph    
Max Gust Speed 17 mph    
Visibility 10 miles    
Events      
Averages and records for this station are not official NWS values.
T = Trace of Precipitation, MM = Missing Value Source: NWS Daily Summary

Daily Weather History Graph

Daily Weather History Graph

Search for Another Location

Airport or City:

Trip Planner

Search our weather history database for the weather conditions in past years. The results will help you decide how hot, cold, wet, or windy it might be!

Date:

Astronomy

Nov. 07, 2012 Rise Set
Actual Time 6:31 AM CST 4:52 PM CST
Civil Twilight 6:03 AM CST 5:20 PM CST
Nautical Twilight 5:32 AM CST 5:52 PM CST
Astronomical Twilight 5:01 AM CST 6:22 PM CST
Moon No Moon Rise 12:56 PM CST (11/7)
Length of Visible Light 11h 16m
Length of Day
10h 21m
Last Quarter, 43% of the Moon is Illuminated
Nov 7
Last Quarter
Nov 13
New
Nov 20
First Quarter
Nov 28
Full
Dec 6
Last Quarter

Hourly Weather History & Observations

Time (CST) Temp. Windchill Dew Point Humidity Pressure Visibility Wind Dir Wind Speed Gust Speed Precip Events Conditions
12:15 AM 44.6 °F - 44.6 °F 100% 29.93 in 10.0 mi Calm Calm - N/A   Unknown
12:35 AM 44.6 °F - 44.6 °F 100% 29.93 in 10.0 mi Calm Calm - N/A   Overcast
12:55 AM 44.6 °F 43.1 °F 44.6 °F 100% 29.93 in 10.0 mi West 3.5 mph - N/A   Overcast
1:15 AM 44.6 °F 43.1 °F 44.6 °F 100% 29.94 in 10.0 mi West 3.5 mph - N/A   Light Drizzle
1:35 AM 44.6 °F - 44.6 °F 100% 29.94 in 10.0 mi Calm Calm - N/A   Unknown
1:55 AM 44.6 °F - 44.6 °F 100% 29.94 in 10.0 mi Calm Calm - N/A   Overcast
2:15 AM 44.6 °F - 44.6 °F 100% 29.94 in 10.0 mi Calm Calm - N/A   Unknown
2:35 AM 44.6 °F 43.1 °F 44.6 °F 100% 29.94 in 10.0 mi WNW 3.5 mph - N/A   Overcast
2:55 AM 44.6 °F 43.1 °F 44.6 °F 100% 29.94 in 10.0 mi WNW 3.5 mph - N/A   Overcast
7:15 AM 44.6 °F 43.1 °F 44.6 °F 100% 29.99 in 10.0 mi NW 3.5 mph - N/A   Overcast
7:35 AM 44.6 °F 41.4 °F 44.6 °F 100% 30.00 in 10.0 mi NW 5.8 mph - N/A   Overcast
7:55 AM 44.6 °F 40.7 °F 44.6 °F 100% 30.01 in 10.0 mi NW 6.9 mph - N/A   Overcast
8:15 AM 46.4 °F 43.5 °F 44.6 °F 93% 30.01 in 10.0 mi NW 5.8 mph - N/A   Overcast
8:35 AM 46.4 °F 40.4 °F 44.6 °F 93% 30.02 in 10.0 mi NNW 13.8 mph 17.3 mph N/A   Overcast
8:55 AM 44.6 °F 40.2 °F 44.6 °F 100% 30.03 in 10.0 mi NNW 8.1 mph - N/A   Overcast
9:15 AM 44.6 °F 42.2 °F 44.6 °F 100% 30.04 in 10.0 mi NNW 4.6 mph - N/A   Overcast
9:35 AM 46.4 °F 42.9 °F 44.6 °F 93% 30.05 in 10.0 mi NNW 6.9 mph - N/A   Overcast
9:55 AM 46.4 °F 41.9 °F 44.6 °F 93% 30.06 in 10.0 mi North 9.2 mph - N/A   Overcast
10:15 AM 46.4 °F 41.5 °F 44.6 °F 93% 30.07 in 10.0 mi North 10.4 mph - N/A   Overcast
10:35 AM 46.4 °F 41.1 °F 44.6 °F 93% 30.07 in 10.0 mi North 11.5 mph - N/A   Overcast
10:55 AM 46.4 °F 41.9 °F 44.6 °F 93% 30.07 in 10.0 mi NNW 9.2 mph 16.1 mph N/A   Overcast
11:15 AM 46.4 °F 42.4 °F 44.6 °F 93% 30.07 in 10.0 mi NNW 8.1 mph - N/A   Overcast
11:35 AM 46.4 °F 41.1 °F 44.6 °F 93% 30.07 in 10.0 mi North 11.5 mph 17.3 mph N/A   Overcast
11:55 AM 46.4 °F 41.5 °F 42.8 °F 87% 30.07 in 10.0 mi NNW 10.4 mph - N/A   Overcast
12:15 PM 48.2 °F - 42.8 °F 82% 30.07 in 10.0 mi NNW 4.6 mph - N/A   Overcast
12:35 PM 48.2 °F - 42.8 °F 82% 30.07 in 10.0 mi NNW 8.1 mph - N/A   Overcast
12:55 PM 48.2 °F - 41.0 °F 76% 30.08 in 10.0 mi NNW 5.8 mph - N/A   Overcast
1:15 PM 48.2 °F - 42.8 °F 82% 30.08 in 10.0 mi NW 8.1 mph - N/A   Overcast
1:35 PM 50.0 °F - 42.8 °F 76% 30.07 in 10.0 mi NW 5.8 mph - N/A   Mostly Cloudy
1:55 PM 48.2 °F - 41.0 °F 76% 30.08 in 10.0 mi NNW 6.9 mph - N/A   Overcast
2:15 PM 48.2 °F - 42.8 °F 82% 30.09 in 10.0 mi NW 4.6 mph - N/A   Overcast
2:35 PM 48.2 °F - 42.8 °F 82% 30.09 in 10.0 mi NW 4.6 mph - N/A   Overcast
2:55 PM 46.4 °F 45.2 °F 42.8 °F 87% 30.10 in 10.0 mi WNW 3.5 mph - N/A   Mostly Cloudy
3:15 PM 48.2 °F - 41.0 °F 76% 30.11 in 10.0 mi NW 6.9 mph - N/A   Mostly Cloudy
3:35 PM 48.2 °F - 42.8 °F 82% 30.12 in 10.0 mi NNW 4.6 mph - N/A   Overcast
3:55 PM 48.2 °F - 42.8 °F 82% 30.12 in 10.0 mi NW 4.6 mph - N/A   Overcast
4:15 PM 46.4 °F 42.4 °F 42.8 °F 87% 30.12 in 10.0 mi NNW 8.1 mph - N/A   Overcast
4:35 PM 46.4 °F 44.3 °F 42.8 °F 87% 30.12 in 10.0 mi NNW 4.6 mph - N/A   Overcast
4:55 PM 46.4 °F - 42.8 °F 87% 30.12 in 10.0 mi Calm Calm - N/A   Overcast
5:15 PM 46.4 °F 45.2 °F 42.8 °F 87% 30.14 in 10.0 mi NW 3.5 mph - N/A   Overcast
5:35 PM 46.4 °F - 44.6 °F 93% 30.15 in 10.0 mi Calm Calm - N/A   Overcast
5:55 PM 46.4 °F 45.2 °F 44.6 °F 93% 30.16 in 10.0 mi NNW 3.5 mph - N/A   Overcast
6:15 PM 44.6 °F 41.4 °F 39.2 °F 81% 30.16 in 10.0 mi North 5.8 mph - N/A   Overcast
6:35 PM 42.8 °F 39.3 °F 39.2 °F 87% 30.17 in 10.0 mi NNW 5.8 mph - N/A   Scattered Clouds
6:55 PM 42.8 °F 41.1 °F 39.2 °F 87% 30.17 in 10.0 mi NNW 3.5 mph - N/A   Clear
7:15 PM 41.0 °F - 39.2 °F 93% 30.17 in 10.0 mi Calm Calm - N/A   Unknown
7:35 PM 41.0 °F - 39.2 °F 93% 30.18 in 10.0 mi Calm Calm - N/A   Unknown
7:55 PM 39.2 °F - 39.2 °F 100% 30.18 in 10.0 mi Calm Calm - N/A   Unknown
8:15 PM 39.2 °F - 39.2 °F 100% 30.18 in 10.0 mi Calm Calm - N/A   Unknown
8:35 PM 39.2 °F - 39.2 °F 100% 30.18 in 10.0 mi Calm Calm - N/A   Clear
8:55 PM 37.4 °F - 37.4 °F 100% 30.19 in 10.0 mi Calm Calm - N/A   Clear
9:15 PM 39.2 °F - 39.2 °F 100% 30.18 in 10.0 mi Calm Calm - N/A   Clear
9:35 PM 39.2 °F - 39.2 °F 100% 30.18 in 10.0 mi Calm Calm - N/A   Clear
9:55 PM 37.4 °F - 37.4 °F 100% 30.18 in 10.0 mi Calm Calm - N/A   Clear
10:15 PM 35.6 °F - 35.6 °F 100% 30.18 in 10.0 mi Calm Calm - N/A   Clear
10:35 PM 37.4 °F - 37.4 °F 100% 30.19 in 10.0 mi Calm Calm - N/A   Clear
10:55 PM 35.6 °F - 35.6 °F 100% 30.20 in 10.0 mi Calm Calm - N/A   Clear
11:15 PM 35.6 °F - 35.6 °F 100% 30.20 in 7.0 mi Calm Calm - N/A   Clear
11:35 PM 35.6 °F - 35.6 °F 100% 30.20 in 7.0 mi Calm Calm - N/A   Clear
11:55 PM 33.8 °F - 33.8 °F 100% 30.20 in 5.0 mi Calm Calm - N/A   Clear